Time,TemperatureF,DewpointF,PressureIn,WindDirection,WindDirectionDegrees,WindSpeedMPH,WindSpeedGustMPH,Humidity,HourlyPrecipIn,Conditions,Clouds,dailyrainin,SolarRadiationWatts/m^2,SoftwareType,DateUTC
2013-03-26 00:00:00,38.6,32.0,29.56,SSW,202,0.0,1.0,77,0.00,,,0.00,0,HR-IXP-WINDi_r2_v1.2,2013-03-26 04:00:00,
2013-03-26 00:05:00,38.5,31.9,29.56,SSW,202,0.0,2.0,77,0.00,,,0.00,0,HR-IXP-WINDi_r2_v1.2,2013-03-26 04:05:00,
2013-03-26 00:10:00,38.5,31.9,29.56,SSW,202,0.0,2.0,77,0.00,,,0.00,0,HR-IXP-WINDi_r2_v1.2,2013-03-26 04:10:00,
2013-03-26 00:15:00,38.5,31.6,29.56,SSW,202,0.0,1.0,76,0.00,,,0.00,0,HR-IXP-WINDi_r2_v1.2,2013-03-26 04:15:00,
2013-03-26 00:20:00,38.5,31.6,29.56,SW,227,0.0,3.0,76,0.00,,,0.00,0,HR-IXP-WINDi_r2_v1.2,2013-03-26 04:20:00,
2013-03-26 00:25:00,38.5,31.6,29.57,SW,227,0.0,3.0,76,0.00,,,0.00,0,HR-IXP-WINDi_r2_v1.2,2013-03-26 04:25:00,
2013-03-26 00:30:00,38.6,31.3,29.57,SW,227,0.0,1.0,75,0.00,,,0.00,0,HR-IXP-WINDi_r2_v1.2,2013-03-26 04:30:00,
2013-03-26 00:35:00,38.7,31.4,29.57,SSW,203,0.0,1.0,75,0.00,,,0.00,0,HR-IXP-WINDi_r2_v1.2,2013-03-26 04:35:00,
2013-03-26 00:41:00,38.7,31.4,29.57,SSW,209,0.0,2.0,75,0.00,,,0.00,0,HR-IXP-WINDi_r2_v1.2,2013-03-26 04:41:00,
2013-03-26 00:46:00,38.7,31.4,29.57,South,171,0.0,2.0,75,0.00,,,0.00,0,HR-IXP-WINDi_r2_v1.2,2013-03-26 04:46:00,
2013-03-26 00:51:00,38.7,31.1,29.57,South,171,0.0,2.0,74,0.00,,,0.00,0,HR-IXP-WINDi_r2_v1.2,2013-03-26 04:51:00,
2013-03-26 00:57:00,38.7,31.1,29.57,South,171,0.0,2.0,74,0.00,,,0.00,0,HR-IXP-WINDi_r2_v1.2,2013-03-26 04:57:00,
2013-03-26 01:01:00,38.7,31.1,29.57,South,171,0.0,1.0,74,0.00,,,0.00,0,HR-IXP-WINDi_r2_v1.2,2013-03-26 05:01:00,
2013-03-26 01:07:00,38.7,31.1,29.57,South,182,0.0,1.0,74,0.00,,,0.00,0,HR-IXP-WINDi_r2_v1.2,2013-03-26 05:07:00,
2013-03-26 01:12:00,38.7,31.1,29.57,South,182,0.0,1.0,74,0.00,,,0.00,0,HR-IXP-WINDi_r2_v1.2,2013-03-26 05:12:00,
2013-03-26 01:17:00,38.6,30.7,29.57,SE,138,0.0,1.0,73,0.00,,,0.00,0,HR-IXP-WINDi_r2_v1.2,2013-03-26 05:17:00,
2013-03-26 01:22:00,38.6,30.7,29.57,SE,138,0.0,1.0,73,0.00,,,0.00,0,HR-IXP-WINDi_r2_v1.2,2013-03-26 05:22:00,
2013-03-26 01:28:00,38.6,30.7,29.57,SE,138,0.0,1.0,73,0.00,,,0.00,0,HR-IXP-WINDi_r2_v1.2,2013-03-26 05:28:00,
2013-03-26 01:33:00,38.5,30.2,29.57,SE,138,0.0,1.0,72,0.00,,,0.00,0,HR-IXP-WINDi_r2_v1.2,2013-03-26 05:33:00,
2013-03-26 01:38:00,38.4,30.1,29.57,SE,138,0.0,1.0,72,0.00,,,0.00,0,HR-IXP-WINDi_r2_v1.2,2013-03-26 05:38:00,
2013-03-26 01:44:00,38.4,29.8,29.57,SE,138,0.0,1.0,71,0.00,,,0.00,0,HR-IXP-WINDi_r2_v1.2,2013-03-26 05:44:00,
2013-03-26 01:49:00,38.4,29.8,29.57,SE,144,0.0,1.0,71,0.00,,,0.00,0,HR-IXP-WINDi_r2_v1.2,2013-03-26 05:49:00,
2013-03-26 01:54:00,38.3,29.4,29.57,SE,144,0.0,1.0,70,0.00,,,0.00,0,HR-IXP-WINDi_r2_v1.2,2013-03-26 05:54:00,
2013-03-26 01:59:00,38.2,29.3,29.58,SE,144,1.0,2.0,70,0.00,,,0.00,0,HR-IXP-WINDi_r2_v1.2,2013-03-26 05:59:00,
2013-03-26 02:05:00,38.1,29.2,29.58,SSW,203,0.0,3.0,70,0.00,,,0.00,0,HR-IXP-WINDi_r2_v1.2,2013-03-26 06:05:00,
2013-03-26 02:10:00,38.1,29.2,29.58,SSW,203,0.0,3.0,70,0.00,,,0.00,0,HR-IXP-WINDi_r2_v1.2,2013-03-26 06:10:00,
2013-03-26 02:15:00,38.0,29.1,29.58,SW,215,0.0,2.0,70,0.00,,,0.00,0,HR-IXP-WINDi_r2_v1.2,2013-03-26 06:15:00,
2013-03-26 02:20:00,38.0,29.4,29.58,SW,215,0.0,2.0,71,0.00,,,0.00,0,HR-IXP-WINDi_r2_v1.2,2013-03-26 06:20:00,
2013-03-26 02:25:00,38.0,29.4,29.58,SW,215,0.0,2.0,71,0.00,,,0.00,0,HR-IXP-WINDi_r2_v1.2,2013-03-26 06:25:00,
2013-03-26 02:31:00,38.0,29.4,29.58,SW,215,0.0,2.0,71,0.00,,,0.00,0,HR-IXP-WINDi_r2_v1.2,2013-03-26 06:31:00,
2013-03-26 02:36:00,37.9,29.3,29.58,South,182,0.0,1.0,71,0.00,,,0.00,0,HR-IXP-WINDi_r2_v1.2,2013-03-26 06:36:00,
2013-03-26 02:41:00,37.9,29.3,29.58,South,182,0.0,1.0,71,0.00,,,0.00,0,HR-IXP-WINDi_r2_v1.2,2013-03-26 06:41:00,
2013-03-26 02:46:00,37.9,29.0,29.58,South,180,0.0,5.0,70,0.00,,,0.00,0,HR-IXP-WINDi_r2_v1.2,2013-03-26 06:46:00,
2013-03-26 02:51:00,38.0,29.1,29.58,South,180,0.0,5.0,70,0.00,,,0.00,0,HR-IXP-WINDi_r2_v1.2,2013-03-26 06:51:00,
2013-03-26 02:57:00,38.0,29.1,29.58,South,180,0.0,1.0,70,0.00,,,0.00,0,HR-IXP-WINDi_r2_v1.2,2013-03-26 06:57:00,
2013-03-26 03:02:00,38.0,29.1,29.58,SSW,207,0.0,2.0,70,0.00,,,0.00,0,HR-IXP-WINDi_r2_v1.2,2013-03-26 07:02:00,
2013-03-26 03:07:00,37.9,30.0,29.58,SW,236,0.0,2.0,73,0.00,,,0.00,0,HR-IXP-WINDi_r2_v1.2,2013-03-26 07:07:00,
2013-03-26 03:12:00,37.7,30.5,29.58,SW,236,0.0,2.0,75,0.00,,,0.00,0,HR-IXP-WINDi_r2_v1.2,2013-03-26 07:12:00,
2013-03-26 03:17:00,37.6,30.4,29.58,SW,236,0.0,1.0,75,0.00,,,0.00,0,HR-IXP-WINDi_r2_v1.2,2013-03-26 07:17:00,
2013-03-26 03:23:00,37.6,30.7,29.58,SW,236,0.0,0.0,76,0.00,,,0.00,0,HR-IXP-WINDi_r2_v1.2,2013-03-26 07:23:00,
2013-03-26 03:28:00,37.5,30.3,29.58,SW,236,0.0,0.0,75,0.00,,,0.00,0,HR-IXP-WINDi_r2_v1.2,2013-03-26 07:28:00,
2013-03-26 03:33:00,37.5,30.3,29.59,SW,236,0.0,1.0,75,0.00,,,0.00,0,HR-IXP-WINDi_r2_v1.2,2013-03-26 07:33:00,
2013-03-26 03:38:00,37.5,29.9,29.59,SW,236,0.0,1.0,74,0.00,,,0.00,0,HR-IXP-WINDi_r2_v1.2,2013-03-26 07:38:00,
2013-03-26 03:43:00,37.5,29.6,29.59,SW,236,0.0,1.0,73,0.00,,,0.00,0,HR-IXP-WINDi_r2_v1.2,2013-03-26 07:43:00,
2013-03-26 03:48:00,37.5,29.3,29.59,SW,236,0.0,1.0,72,0.00,,,0.00,0,HR-IXP-WINDi_r2_v1.2,2013-03-26 07:48:00,
2013-03-26 03:54:00,37.5,29.3,29.59,SW,236,0.0,1.0,72,0.00,,,0.00,0,HR-IXP-WINDi_r2_v1.2,2013-03-26 07:54:00,
2013-03-26 03:59:00,37.5,29.3,29.59,SW,236,0.0,1.0,72,0.00,,,0.00,0,HR-IXP-WINDi_r2_v1.2,2013-03-26 07:59:00,
2013-03-26 04:05:00,37.4,29.2,29.60,SW,236,0.0,1.0,72,0.00,,,0.00,0,HR-IXP-WINDi_r2_v1.2,2013-03-26 08:05:00,
2013-03-26 04:10:00,37.3,28.7,29.60,SW,236,0.0,1.0,71,0.00,,,0.00,0,HR-IXP-WINDi_r2_v1.2,2013-03-26 08:10:00,
2013-03-26 04:15:00,37.2,28.6,29.60,SW,236,0.0,1.0,71,0.00,,,0.00,0,HR-IXP-WINDi_r2_v1.2,2013-03-26 08:15:00,
2013-03-26 04:20:00,36.9,28.4,29.60,SW,223,0.0,1.0,71,0.00,,,0.00,0,HR-IXP-WINDi_r2_v1.2,2013-03-26 08:20:00,
2013-03-26 04:26:00,36.9,28.4,29.60,SW,223,0.0,1.0,71,0.00,,,0.00,0,HR-IXP-WINDi_r2_v1.2,2013-03-26 08:26:00,
2013-03-26 04:31:00,36.8,28.3,29.60,SW,223,0.0,1.0,71,0.00,,,0.00,0,HR-IXP-WINDi_r2_v1.2,2013-03-26 08:31:00,
2013-03-26 04:36:00,36.8,28.3,29.60,SW,223,0.0,1.0,71,0.00,,,0.00,0,HR-IXP-WINDi_r2_v1.2,2013-03-26 08:36:00,
2013-03-26 04:41:00,36.8,28.3,29.60,SW,223,0.0,1.0,71,0.00,,,0.00,0,HR-IXP-WINDi_r2_v1.2,2013-03-26 08:41:00,
2013-03-26 04:46:00,36.8,28.3,29.60,SW,223,0.0,1.0,71,0.00,,,0.00,0,HR-IXP-WINDi_r2_v1.2,2013-03-26 08:46:00,
2013-03-26 04:52:00,36.8,28.3,29.60,SW,223,0.0,1.0,71,0.00,,,0.00,0,HR-IXP-WINDi_r2_v1.2,2013-03-26 08:52:00,
2013-03-26 04:57:00,36.6,28.1,29.60,SW,223,0.0,1.0,71,0.00,,,0.00,0,HR-IXP-WINDi_r2_v1.2,2013-03-26 08:57:00,
2013-03-26 05:02:00,36.4,28.2,29.61,SW,223,0.0,0.0,72,0.00,,,0.00,0,HR-IXP-WINDi_r2_v1.2,2013-03-26 09:02:00,
2013-03-26 05:07:00,36.1,27.9,29.61,SW,223,0.0,1.0,72,0.00,,,0.00,0,HR-IXP-WINDi_r2_v1.2,2013-03-26 09:07:00,
2013-03-26 05:12:00,36.1,27.9,29.61,SW,223,0.0,1.0,72,0.00,,,0.00,0,HR-IXP-WINDi_r2_v1.2,2013-03-26 09:12:00,
2013-03-26 05:17:00,36.1,27.9,29.61,SW,223,0.0,0.0,72,0.00,,,0.00,0,HR-IXP-WINDi_r2_v1.2,2013-03-26 09:17:00,
2013-03-26 05:22:00,36.1,28.3,29.62,SW,223,0.0,0.0,73,0.00,,,0.00,0,HR-IXP-WINDi_r2_v1.2,2013-03-26 09:22:00,
2013-03-26 05:28:00,36.2,28.4,29.62,SW,223,0.0,0.0,73,0.00,,,0.00,0,HR-IXP-WINDi_r2_v1.2,2013-03-26 09:28:00,
2013-03-26 05:33:00,36.4,28.6,29.62,SW,223,0.0,1.0,73,0.00,,,0.00,0,HR-IXP-WINDi_r2_v1.2,2013-03-26 09:33:00,
2013-03-26 05:38:00,36.4,28.6,29.63,SW,223,0.0,1.0,73,0.00,,,0.00,0,HR-IXP-WINDi_r2_v1.2,2013-03-26 09:38:00,
2013-03-26 05:44:00,36.5,28.3,29.63,SW,223,0.0,1.0,72,0.00,,,0.00,0,HR-IXP-WINDi_r2_v1.2,2013-03-26 09:44:00,
2013-03-26 05:49:00,36.6,28.4,29.63,SW,223,0.0,1.0,72,0.00,,,0.00,0,HR-IXP-WINDi_r2_v1.2,2013-03-26 09:49:00,
2013-03-26 05:54:00,36.7,28.5,29.63,SW,223,0.0,0.0,72,0.00,,,0.00,0,HR-IXP-WINDi_r2_v1.2,2013-03-26 09:54:00,
2013-03-26 05:59:00,36.7,28.5,29.63,SW,223,0.0,0.0,72,0.00,,,0.00,0,HR-IXP-WINDi_r2_v1.2,2013-03-26 09:59:00,
2013-03-26 06:04:00,36.8,28.6,29.64,SW,223,0.0,1.0,72,0.00,,,0.00,0,HR-IXP-WINDi_r2_v1.2,2013-03-26 10:04:00,
2013-03-26 06:09:00,36.8,28.6,29.64,SW,223,0.0,1.0,72,0.00,,,0.00,0,HR-IXP-WINDi_r2_v1.2,2013-03-26 10:09:00,
2013-03-26 06:14:00,36.8,28.6,29.64,SW,223,0.0,1.0,72,0.00,,,0.00,0,HR-IXP-WINDi_r2_v1.2,2013-03-26 10:14:00,
2013-03-26 06:19:00,36.8,28.3,29.64,SW,223,0.0,1.0,71,0.00,,,0.00,0,HR-IXP-WINDi_r2_v1.2,2013-03-26 10:19:00,
2013-03-26 06:25:00,36.9,28.4,29.64,SW,223,0.0,1.0,71,0.00,,,0.00,0,HR-IXP-WINDi_r2_v1.2,2013-03-26 10:25:00,
2013-03-26 06:30:00,36.9,28.4,29.65,SW,223,0.0,1.0,71,0.00,,,0.00,0,HR-IXP-WINDi_r2_v1.2,2013-03-26 10:30:00,
2013-03-26 06:35:00,36.9,28.7,29.65,SW,223,0.0,1.0,72,0.00,,,0.00,0,HR-IXP-WINDi_r2_v1.2,2013-03-26 10:35:00,
2013-03-26 06:40:00,36.9,28.7,29.65,SW,223,0.0,1.0,72,0.00,,,0.00,0,HR-IXP-WINDi_r2_v1.2,2013-03-26 10:40:00,
2013-03-26 06:46:00,36.9,28.7,29.65,SW,223,0.0,0.0,72,0.00,,,0.00,0,HR-IXP-WINDi_r2_v1.2,2013-03-26 10:46:00,
2013-03-26 06:51:00,37.0,28.8,29.66,SSW,199,0.0,2.0,72,0.00,,,0.00,5,HR-IXP-WINDi_r2_v1.2,2013-03-26 10:51:00,
2013-03-26 06:56:00,37.1,28.6,29.66,SSW,199,0.0,2.0,71,0.00,,,0.00,7,HR-IXP-WINDi_r2_v1.2,2013-03-26 10:56:00,
2013-03-26 07:01:00,37.2,28.6,29.66,SSW,199,0.0,0.0,71,0.00,,,0.00,7,HR-IXP-WINDi_r2_v1.2,2013-03-26 11:01:00,
2013-03-26 07:07:00,37.2,28.6,29.66,SSW,199,0.0,1.0,71,0.00,,,0.00,9,HR-IXP-WINDi_r2_v1.2,2013-03-26 11:07:00,
2013-03-26 07:12:00,37.4,28.8,29.66,SSW,199,0.0,1.0,71,0.00,,,0.00,12,HR-IXP-WINDi_r2_v1.2,2013-03-26 11:12:00,
2013-03-26 07:17:00,37.5,28.9,29.66,SSW,199,0.0,0.0,71,0.00,,,0.00,12,HR-IXP-WINDi_r2_v1.2,2013-03-26 11:17:00,
2013-03-26 07:22:00,37.5,28.6,29.67,SSW,199,0.0,0.0,70,0.00,,,0.00,14,HR-IXP-WINDi_r2_v1.2,2013-03-26 11:22:00,
2013-03-26 07:27:00,37.5,28.6,29.67,SSW,199,0.0,1.0,70,0.00,,,0.00,18,HR-IXP-WINDi_r2_v1.2,2013-03-26 11:27:00,
2013-03-26 07:32:00,37.7,28.4,29.67,SSW,200,0.0,1.0,69,0.00,,,0.00,19,HR-IXP-WINDi_r2_v1.2,2013-03-26 11:32:00,
2013-03-26 07:38:00,37.8,28.5,29.68,SSW,196,0.0,1.0,69,0.00,,,0.00,23,HR-IXP-WINDi_r2_v1.2,2013-03-26 11:38:00,
2013-03-26 07:43:00,37.8,28.2,29.68,SSW,196,0.0,1.0,68,0.00,,,0.00,23,HR-IXP-WINDi_r2_v1.2,2013-03-26 11:43:00,
2013-03-26 07:49:00,37.9,28.3,29.68,SSW,196,0.0,1.0,68,0.00,,,0.00,25,HR-IXP-WINDi_r2_v1.2,2013-03-26 11:49:00,
2013-03-26 07:54:00,38.0,28.4,29.68,SSW,196,0.0,1.0,68,0.00,,,0.00,28,HR-IXP-WINDi_r2_v1.2,2013-03-26 11:54:00,
2013-03-26 07:59:00,38.1,28.5,29.68,SSW,196,0.0,0.0,68,0.00,,,0.00,32,HR-IXP-WINDi_r2_v1.2,2013-03-26 11:59:00,
2013-03-26 08:04:00,38.3,28.6,29.68,SSW,196,0.0,1.0,68,0.00,,,0.00,44,HR-IXP-WINDi_r2_v1.2,2013-03-26 12:04:00,
2013-03-26 08:10:00,38.5,28.5,29.68,SSW,192,0.0,1.0,67,0.00,,,0.00,46,HR-IXP-WINDi_r2_v1.2,2013-03-26 12:10:00,
2013-03-26 08:15:00,38.7,28.7,29.68,SSW,192,0.0,1.0,67,0.00,,,0.00,54,HR-IXP-WINDi_r2_v1.2,2013-03-26 12:15:00,
2013-03-26 08:20:00,38.8,28.4,29.69,SSW,192,0.0,1.0,66,0.00,,,0.00,69,HR-IXP-WINDi_r2_v1.2,2013-03-26 12:20:00,
2013-03-26 08:26:00,39.1,28.3,29.69,SSW,192,0.0,1.0,65,0.00,,,0.00,104,HR-IXP-WINDi_r2_v1.2,2013-03-26 12:26:00,
2013-03-26 08:31:00,39.7,28.5,29.69,SSW,192,0.0,1.0,64,0.00,,,0.00,113,HR-IXP-WINDi_r2_v1.2,2013-03-26 12:31:00,
2013-03-26 08:36:00,40.0,28.8,29.69,SSW,192,0.0,1.0,64,0.00,,,0.00,104,HR-IXP-WINDi_r2_v1.2,2013-03-26 12:36:00,
2013-03-26 08:41:00,40.1,28.5,29.69,SSW,192,0.0,1.0,63,0.00,,,0.00,111,HR-IXP-WINDi_r2_v1.2,2013-03-26 12:41:00,
2013-03-26 08:47:00,40.4,28.0,29.69,SSW,193,0.0,1.0,61,0.00,,,0.00,120,HR-IXP-WINDi_r2_v1.2,2013-03-26 12:47:00,
2013-03-26 08:52:00,40.6,27.8,29.69,SE,136,0.0,2.0,60,0.00,,,0.00,163,HR-IXP-WINDi_r2_v1.2,2013-03-26 12:52:00,
2013-03-26 08:57:00,40.8,27.6,29.69,SE,136,0.0,2.0,59,0.00,,,0.00,167,HR-IXP-WINDi_r2_v1.2,2013-03-26 12:57:00,
2013-03-26 09:02:00,41.5,28.2,29.69,SE,136,0.0,2.0,59,0.00,,,0.00,181,HR-IXP-WINDi_r2_v1.2,2013-03-26 13:02:00,
2013-03-26 09:07:00,41.7,28.0,29.70,SE,136,0.0,1.0,58,0.00,,,0.00,167,HR-IXP-WINDi_r2_v1.2,2013-03-26 13:07:00,
2013-03-26 09:12:00,41.7,27.6,29.70,SW,231,0.0,2.0,57,0.00,,,0.00,179,HR-IXP-WINDi_r2_v1.2,2013-03-26 13:12:00,
2013-03-26 09:17:00,41.8,27.2,29.70,SW,231,0.0,2.0,56,0.00,,,0.00,186,HR-IXP-WINDi_r2_v1.2,2013-03-26 13:17:00,
2013-03-26 09:23:00,42.4,27.4,29.70,South,184,0.0,1.0,55,0.00,,,0.00,255,HR-IXP-WINDi_r2_v1.2,2013-03-26 13:23:00,
2013-03-26 09:28:00,43.4,27.8,29.70,South,189,1.0,3.0,54,0.00,,,0.00,624,HR-IXP-WINDi_r2_v1.2,2013-03-26 13:28:00,
2013-03-26 09:33:00,44.9,28.3,29.70,SSW,202,0.0,3.0,52,0.00,,,0.00,545,HR-IXP-WINDi_r2_v1.2,2013-03-26 13:33:00,
2013-03-26 09:38:00,45.1,28.0,29.70,SSW,202,0.0,3.0,51,0.00,,,0.00,223,HR-IXP-WINDi_r2_v1.2,2013-03-26 13:38:00,
2013-03-26 09:43:00,44.3,26.3,29.70,SSW,202,0.0,1.0,49,0.00,,,0.00,257,HR-IXP-WINDi_r2_v1.2,2013-03-26 13:43:00,
2013-03-26 09:48:00,44.7,27.7,29.70,SSW,202,1.0,1.0,51,0.00,,,0.00,420,HR-IXP-WINDi_r2_v1.2,2013-03-26 13:48:00,
2013-03-26 09:53:00,45.8,27.2,29.70,WNW,282,1.0,1.0,48,0.00,,,0.00,309,HR-IXP-WINDi_r2_v1.2,2013-03-26 13:53:00,
2013-03-26 09:58:00,46.0,26.9,29.70,SSW,193,0.0,1.0,47,0.00,,,0.00,114,HR-IXP-WINDi_r2_v1.2,2013-03-26 13:58:00,
2013-03-26 10:03:00,46.2,27.1,29.70,South,180,0.0,1.0,47,0.00,,,0.00,100,HR-IXP-WINDi_r2_v1.2,2013-03-26 14:03:00,
2013-03-26 10:09:00,46.7,27.0,29.70,South,180,0.0,1.0,46,0.00,,,0.00,325,HR-IXP-WINDi_r2_v1.2,2013-03-26 14:09:00,
2013-03-26 10:14:00,47.3,27.0,29.70,South,180,0.0,1.0,45,0.00,,,0.00,234,HR-IXP-WINDi_r2_v1.2,2013-03-26 14:14:00,
2013-03-26 10:19:00,47.7,26.8,29.70,SSW,194,0.0,1.0,44,0.00,,,0.00,237,HR-IXP-WINDi_r2_v1.2,2013-03-26 14:19:00,
2013-03-26 10:24:00,47.7,26.3,29.70,SSW,192,0.0,1.0,43,0.00,,,0.00,728,HR-IXP-WINDi_r2_v1.2,2013-03-26 14:24:00,
2013-03-26 10:29:00,48.4,26.3,29.70,SW,225,0.0,2.0,42,0.00,,,0.00,575,HR-IXP-WINDi_r2_v1.2,2013-03-26 14:29:00,
2013-03-26 10:35:00,48.5,26.4,29.70,SSW,200,0.0,2.0,42,0.00,,,0.00,526,HR-IXP-WINDi_r2_v1.2,2013-03-26 14:35:00,
2013-03-26 10:40:00,48.6,25.9,29.70,SSW,202,0.0,2.0,41,0.00,,,0.00,552,HR-IXP-WINDi_r2_v1.2,2013-03-26 14:40:00,
2013-03-26 10:45:00,49.5,24.9,29.70,SSW,200,0.0,2.0,38,0.00,,,0.00,469,HR-IXP-WINDi_r2_v1.2,2013-03-26 14:45:00,
2013-03-26 10:50:00,49.2,25.9,29.70,SSW,200,0.0,1.0,40,0.00,,,0.00,454,HR-IXP-WINDi_r2_v1.2,2013-03-26 14:50:00,
2013-03-26 10:55:00,50.1,26.1,29.70,SSW,196,0.0,1.0,39,0.00,,,0.00,548,HR-IXP-WINDi_r2_v1.2,2013-03-26 14:55:00,
2013-03-26 11:01:00,50.5,25.8,29.71,SSW,196,0.0,1.0,38,0.00,,,0.00,425,HR-IXP-WINDi_r2_v1.2,2013-03-26 15:01:00,
2013-03-26 11:06:00,50.1,25.5,29.70,SSW,210,0.0,1.0,38,0.00,,,0.00,629,HR-IXP-WINDi_r2_v1.2,2013-03-26 15:06:00,
2013-03-26 11:11:00,48.1,28.3,29.71,SSW,198,0.0,2.0,46,0.00,,,0.00,200,HR-IXP-WINDi_r2_v1.2,2013-03-26 15:11:00,
2013-03-26 11:16:00,48.3,27.4,29.71,South,170,0.0,2.0,44,0.00,,,0.00,141,HR-IXP-WINDi_r2_v1.2,2013-03-26 15:16:00,
2013-03-26 11:22:00,47.8,28.5,29.71,WSW,258,0.0,1.0,47,0.00,,,0.00,661,HR-IXP-WINDi_r2_v1.2,2013-03-26 15:22:00,
2013-03-26 11:27:00,49.4,28.4,29.71,SW,231,0.0,1.0,44,0.00,,,0.00,749,HR-IXP-WINDi_r2_v1.2,2013-03-26 15:27:00,
2013-03-26 11:33:00,50.6,28.3,29.71,SSW,205,0.0,2.0,42,0.00,,,0.00,921,HR-IXP-WINDi_r2_v1.2,2013-03-26 15:33:00,
2013-03-26 11:38:00,50.6,27.7,29.71,SSW,206,0.0,2.0,41,0.00,,,0.00,413,HR-IXP-WINDi_r2_v1.2,2013-03-26 15:38:00,
2013-03-26 11:43:00,48.7,27.7,29.71,SSW,206,0.0,1.0,44,0.00,,,0.00,163,HR-IXP-WINDi_r2_v1.2,2013-03-26 15:43:00,
2013-03-26 11:48:00,48.7,27.7,29.71,South,182,0.0,2.0,44,0.00,,,0.00,195,HR-IXP-WINDi_r2_v1.2,2013-03-26 15:48:00,
2013-03-26 11:53:00,50.8,28.5,29.71,South,190,0.0,2.0,42,0.00,,,0.00,1056,HR-IXP-WINDi_r2_v1.2,2013-03-26 15:53:00,
2013-03-26 11:59:00,50.9,27.4,29.71,South,180,0.0,2.0,40,0.00,,,0.00,285,HR-IXP-WINDi_r2_v1.2,2013-03-26 15:59:00,
2013-03-26 12:04:00,49.6,28.0,29.71,South,180,0.0,2.0,43,0.00,,,0.00,206,HR-IXP-WINDi_r2_v1.2,2013-03-26 16:04:00,
2013-03-26 12:10:00,49.4,27.8,29.71,South,182,0.0,1.0,43,0.00,,,0.00,193,HR-IXP-WINDi_r2_v1.2,2013-03-26 16:10:00,
2013-03-26 12:15:00,49.0,27.5,29.71,South,182,0.0,1.0,43,0.00,,,0.00,251,HR-IXP-WINDi_r2_v1.2,2013-03-26 16:15:00,
2013-03-26 12:20:00,48.9,26.8,29.71,South,179,0.0,1.0,42,0.00,,,0.00,339,HR-IXP-WINDi_r2_v1.2,2013-03-26 16:20:00,
2013-03-26 12:25:00,51.6,28.6,29.71,SW,227,0.0,3.0,41,0.00,,,0.00,1090,HR-IXP-WINDi_r2_v1.2,2013-03-26 16:25:00,
2013-03-26 12:30:00,51.7,28.1,29.71,SW,219,0.0,3.0,40,0.00,,,0.00,234,HR-IXP-WINDi_r2_v1.2,2013-03-26 16:30:00,
2013-03-26 12:36:00,50.8,26.7,29.71,SSW,211,0.0,2.0,39,0.00,,,0.00,329,HR-IXP-WINDi_r2_v1.2,2013-03-26 16:36:00,
2013-03-26 12:41:00,50.6,27.7,29.71,SSW,211,0.0,1.0,41,0.00,,,0.00,288,HR-IXP-WINDi_r2_v1.2,2013-03-26 16:41:00,
2013-03-26 12:46:00,50.5,27.1,29.71,SSW,207,0.0,2.0,40,0.00,,,0.00,207,HR-IXP-WINDi_r2_v1.2,2013-03-26 16:46:00,
2013-03-26 12:51:00,50.4,28.2,29.71,South,182,0.0,2.0,42,0.00,,,0.00,313,HR-IXP-WINDi_r2_v1.2,2013-03-26 16:51:00,
2013-03-26 12:56:00,51.9,28.9,29.71,South,180,0.0,1.0,41,0.00,,,0.00,527,HR-IXP-WINDi_r2_v1.2,2013-03-26 16:56:00,
2013-03-26 13:02:00,52.3,29.3,29.71,SSE,147,0.0,1.0,41,0.00,,,0.00,527,HR-IXP-WINDi_r2_v1.2,2013-03-26 17:02:00,
2013-03-26 13:07:00,52.4,28.1,29.71,SSW,197,0.0,3.0,39,0.00,,,0.00,262,HR-IXP-WINDi_r2_v1.2,2013-03-26 17:07:00,
2013-03-26 13:12:00,50.6,27.7,29.71,South,180,0.0,3.0,41,0.00,,,0.00,195,HR-IXP-WINDi_r2_v1.2,2013-03-26 17:12:00,
2013-03-26 13:17:00,50.8,27.9,29.71,SSW,198,1.0,2.0,41,0.00,,,0.00,250,HR-IXP-WINDi_r2_v1.2,2013-03-26 17:17:00,
2013-03-26 13:23:00,53.2,28.2,29.71,SSW,200,0.0,1.0,38,0.00,,,0.00,1048,HR-IXP-WINDi_r2_v1.2,2013-03-26 17:23:00,
2013-03-26 13:28:00,52.2,27.3,29.71,South,182,0.0,2.0,38,0.00,,,0.00,213,HR-IXP-WINDi_r2_v1.2,2013-03-26 17:28:00,
2013-03-26 13:33:00,51.2,27.7,29.71,SSW,192,0.0,2.0,40,0.00,,,0.00,206,HR-IXP-WINDi_r2_v1.2,2013-03-26 17:33:00,
2013-03-26 13:38:00,51.1,28.8,29.71,South,191,0.0,2.0,42,0.00,,,0.00,408,HR-IXP-WINDi_r2_v1.2,2013-03-26 17:38:00,
2013-03-26 13:43:00,51.4,29.1,29.71,South,169,0.0,1.0,42,0.00,,,0.00,958,HR-IXP-WINDi_r2_v1.2,2013-03-26 17:43:00,
2013-03-26 13:48:00,53.6,29.2,29.71,South,171,0.0,1.0,39,0.00,,,0.00,912,HR-IXP-WINDi_r2_v1.2,2013-03-26 17:48:00,
2013-03-26 13:53:00,54.3,28.6,29.71,South,188,0.0,1.0,37,0.00,,,0.00,902,HR-IXP-WINDi_r2_v1.2,2013-03-26 17:53:00,
2013-03-26 13:59:00,55.1,28.6,29.71,SSW,193,0.0,2.0,36,0.00,,,0.00,902,HR-IXP-WINDi_r2_v1.2,2013-03-26 17:59:00,
2013-03-26 14:04:00,55.9,27.9,29.71,SSW,192,0.0,2.0,34,0.00,,,0.00,898,HR-IXP-WINDi_r2_v1.2,2013-03-26 18:04:00,
2013-03-26 14:09:00,56.1,28.1,29.71,SSW,196,0.0,1.0,34,0.00,,,0.00,925,HR-IXP-WINDi_r2_v1.2,2013-03-26 18:09:00,
2013-03-26 14:14:00,55.4,27.5,29.71,South,178,0.0,2.0,34,0.00,,,0.00,95,HR-IXP-WINDi_r2_v1.2,2013-03-26 18:14:00,
2013-03-26 14:19:00,53.1,27.5,29.71,ESE,123,0.0,4.0,37,0.00,,,0.00,149,HR-IXP-WINDi_r2_v1.2,2013-03-26 18:19:00,
2013-03-26 14:24:00,52.2,28.0,29.71,ESE,120,0.0,4.0,39,0.00,,,0.00,919,HR-IXP-WINDi_r2_v1.2,2013-03-26 18:24:00,
2013-03-26 14:29:00,54.5,29.4,29.71,ESE,120,0.0,1.0,38,0.00,,,0.00,846,HR-IXP-WINDi_r2_v1.2,2013-03-26 18:29:00,
2013-03-26 14:34:00,54.9,28.4,29.70,SE,132,0.0,1.0,36,0.00,,,0.00,821,HR-IXP-WINDi_r2_v1.2,2013-03-26 18:34:00,
2013-03-26 14:40:00,55.1,27.2,29.71,South,177,0.0,2.0,34,0.00,,,0.00,712,HR-IXP-WINDi_r2_v1.2,2013-03-26 18:40:00,
2013-03-26 14:45:00,54.6,26.8,29.70,South,176,0.0,2.0,34,0.00,,,0.00,858,HR-IXP-WINDi_r2_v1.2,2013-03-26 18:45:00,
2013-03-26 14:50:00,55.3,27.4,29.70,South,186,0.0,2.0,34,0.00,,,0.00,777,HR-IXP-WINDi_r2_v1.2,2013-03-26 18:50:00,
2013-03-26 14:55:00,53.6,25.9,29.70,SSW,192,0.0,2.0,34,0.00,,,0.00,237,HR-IXP-WINDi_r2_v1.2,2013-03-26 18:55:00,
2013-03-26 15:01:00,53.6,25.9,29.70,South,191,0.0,2.0,34,0.00,,,0.00,366,HR-IXP-WINDi_r2_v1.2,2013-03-26 19:01:00,
2013-03-26 15:06:00,54.3,25.8,29.70,SSE,162,0.0,2.0,33,0.00,,,0.00,779,HR-IXP-WINDi_r2_v1.2,2013-03-26 19:06:00,
2013-03-26 15:11:00,55.0,25.7,29.70,SE,140,2.0,3.0,32,0.00,,,0.00,740,HR-IXP-WINDi_r2_v1.2,2013-03-26 19:11:00,
2013-03-26 15:17:00,54.4,25.1,29.70,SSE,156,0.0,3.0,32,0.00,,,0.00,144,HR-IXP-WINDi_r2_v1.2,2013-03-26 19:17:00,
2013-03-26 15:22:00,54.7,26.1,29.70,South,180,0.0,2.0,33,0.00,,,0.00,807,HR-IXP-WINDi_r2_v1.2,2013-03-26 19:22:00,
2013-03-26 15:27:00,54.6,25.3,29.70,SE,140,0.0,2.0,32,0.00,,,0.00,751,HR-IXP-WINDi_r2_v1.2,2013-03-26 19:27:00,
2013-03-26 15:32:00,55.7,25.5,29.70,SE,137,0.0,2.0,31,0.00,,,0.00,747,HR-IXP-WINDi_r2_v1.2,2013-03-26 19:32:00,
2013-03-26 15:37:00,54.9,24.8,29.70,SE,138,0.0,1.0,31,0.00,,,0.00,227,HR-IXP-WINDi_r2_v1.2,2013-03-26 19:37:00,
2013-03-26 15:42:00,53.5,25.1,29.70,SE,137,0.0,1.0,33,0.00,,,0.00,232,HR-IXP-WINDi_r2_v1.2,2013-03-26 19:42:00,
2013-03-26 15:47:00,54.2,24.2,29.70,SE,141,0.0,1.0,31,0.00,,,0.00,144,HR-IXP-WINDi_r2_v1.2,2013-03-26 19:47:00,
2013-03-26 15:52:00,54.0,23.3,29.70,SE,141,0.0,1.0,30,0.00,,,0.00,76,HR-IXP-WINDi_r2_v1.2,2013-03-26 19:52:00,
2013-03-26 15:57:00,53.7,23.0,29.70,SE,141,0.0,1.0,30,0.00,,,0.00,79,HR-IXP-WINDi_r2_v1.2,2013-03-26 19:57:00,
2013-03-26 16:03:00,52.7,22.9,29.70,SE,141,0.0,1.0,31,0.00,,,0.00,98,HR-IXP-WINDi_r2_v1.2,2013-03-26 20:03:00,
2013-03-26 16:08:00,53.5,24.4,29.70,SE,141,0.0,1.0,32,0.00,,,0.00,95,HR-IXP-WINDi_r2_v1.2,2013-03-26 20:08:00,
2013-03-26 16:13:00,53.9,24.0,29.70,SE,130,0.0,2.0,31,0.00,,,0.00,81,HR-IXP-WINDi_r2_v1.2,2013-03-26 20:13:00,
2013-03-26 16:18:00,54.0,24.0,29.70,SE,142,0.0,2.0,31,0.00,,,0.00,77,HR-IXP-WINDi_r2_v1.2,2013-03-26 20:18:00,
2013-03-26 16:23:00,53.7,23.8,29.70,SE,142,0.0,1.0,31,0.00,,,0.00,56,HR-IXP-WINDi_r2_v1.2,2013-03-26 20:23:00,
2013-03-26 16:29:00,54.3,23.5,29.70,South,177,0.0,1.0,30,0.00,,,0.00,40,HR-IXP-WINDi_r2_v1.2,2013-03-26 20:29:00,
2013-03-26 16:34:00,53.7,23.0,29.70,South,172,0.0,1.0,30,0.00,,,0.00,32,HR-IXP-WINDi_r2_v1.2,2013-03-26 20:34:00,
2013-03-26 16:39:00,52.8,22.2,29.70,WSW,244,0.0,1.0,30,0.00,,,0.00,46,HR-IXP-WINDi_r2_v1.2,2013-03-26 20:39:00,
2013-03-26 16:44:00,53.0,23.2,29.70,SSW,192,0.0,1.0,31,0.00,,,0.00,47,HR-IXP-WINDi_r2_v1.2,2013-03-26 20:44:00,
2013-03-26 16:49:00,53.5,22.8,29.70,SSE,167,0.0,2.0,30,0.00,,,0.00,46,HR-IXP-WINDi_r2_v1.2,2013-03-26 20:49:00,
2013-03-26 16:54:00,53.3,22.7,29.71,South,170,0.0,2.0,30,0.00,,,0.00,28,HR-IXP-WINDi_r2_v1.2,2013-03-26 20:54:00,
2013-03-26 16:59:00,52.4,21.9,29.71,South,170,0.0,2.0,30,0.00,,,0.00,28,HR-IXP-WINDi_r2_v1.2,2013-03-26 20:59:00,
2013-03-26 17:05:00,52.0,21.5,29.71,SSW,198,0.0,2.0,30,0.00,,,0.00,32,HR-IXP-WINDi_r2_v1.2,2013-03-26 21:05:00,
2013-03-26 17:10:00,51.9,21.4,29.71,SSW,198,0.0,1.0,30,0.00,,,0.00,40,HR-IXP-WINDi_r2_v1.2,2013-03-26 21:10:00,
2013-03-26 17:15:00,52.2,21.7,29.71,SSW,198,0.0,1.0,30,0.00,,,0.00,40,HR-IXP-WINDi_r2_v1.2,2013-03-26 21:15:00,
2013-03-26 17:20:00,51.9,20.6,29.71,WNW,288,0.0,3.0,29,0.00,,,0.00,37,HR-IXP-WINDi_r2_v1.2,2013-03-26 21:20:00,
2013-03-26 17:25:00,51.9,21.4,29.72,SSW,210,0.0,3.0,30,0.00,,,0.00,37,HR-IXP-WINDi_r2_v1.2,2013-03-26 21:25:00,
2013-03-26 17:31:00,51.4,21.0,29.72,SW,222,0.0,2.0,30,0.00,,,0.00,37,HR-IXP-WINDi_r2_v1.2,2013-03-26 21:31:00,
2013-03-26 17:36:00,51.3,21.7,29.72,SSW,209,1.0,1.0,31,0.00,,,0.00,32,HR-IXP-WINDi_r2_v1.2,2013-03-26 21:36:00,
2013-03-26 17:41:00,50.7,21.2,29.72,West,264,0.0,3.0,31,0.00,,,0.00,28,HR-IXP-WINDi_r2_v1.2,2013-03-26 21:41:00,
2013-03-26 17:46:00,50.5,21.0,29.72,SSW,202,0.0,3.0,31,0.00,,,0.00,21,HR-IXP-WINDi_r2_v1.2,2013-03-26 21:46:00,
2013-03-26 17:51:00,50.4,20.9,29.72,SSW,203,0.0,1.0,31,0.00,,,0.00,21,HR-IXP-WINDi_r2_v1.2,2013-03-26 21:51:00,
2013-03-26 17:56:00,50.2,21.5,29.72,SW,218,0.0,2.0,32,0.00,,,0.00,28,HR-IXP-WINDi_r2_v1.2,2013-03-26 21:56:00,
2013-03-26 18:02:00,50.1,20.6,29.72,SW,218,0.0,2.0,31,0.00,,,0.00,25,HR-IXP-WINDi_r2_v1.2,2013-03-26 22:02:00,
2013-03-26 18:07:00,50.1,20.6,29.73,SW,218,0.0,1.0,31,0.00,,,0.00,18,HR-IXP-WINDi_r2_v1.2,2013-03-26 22:07:00,
2013-03-26 18:12:00,49.9,20.5,29.73,SSW,196,0.0,1.0,31,0.00,,,0.00,16,HR-IXP-WINDi_r2_v1.2,2013-03-26 22:12:00,
2013-03-26 18:17:00,49.7,20.3,29.73,SSW,196,0.0,1.0,31,0.00,,,0.00,16,HR-IXP-WINDi_r2_v1.2,2013-03-26 22:17:00,
2013-03-26 18:22:00,49.6,20.9,29.73,SSW,194,0.0,0.0,32,0.00,,,0.00,18,HR-IXP-WINDi_r2_v1.2,2013-03-26 22:22:00,
2013-03-26 18:27:00,49.5,20.9,29.73,SSW,195,0.0,0.0,32,0.00,,,0.00,16,HR-IXP-WINDi_r2_v1.2,2013-03-26 22:27:00,
2013-03-26 18:33:00,49.4,20.8,29.73,SSW,192,0.0,0.0,32,0.00,,,0.00,12,HR-IXP-WINDi_r2_v1.2,2013-03-26 22:33:00,
2013-03-26 18:38:00,49.1,21.2,29.74,South,191,0.0,1.0,33,0.00,,,0.00,11,HR-IXP-WINDi_r2_v1.2,2013-03-26 22:38:00,
2013-03-26 18:43:00,49.0,21.1,29.74,South,191,0.0,1.0,33,0.00,,,0.00,7,HR-IXP-WINDi_r2_v1.2,2013-03-26 22:43:00,
2013-03-26 18:48:00,48.8,21.0,29.74,South,191,0.0,0.0,33,0.00,,,0.00,7,HR-IXP-WINDi_r2_v1.2,2013-03-26 22:48:00,
2013-03-26 18:54:00,48.5,21.4,29.74,South,191,0.0,0.0,34,0.00,,,0.00,5,HR-IXP-WINDi_r2_v1.2,2013-03-26 22:54:00,
2013-03-26 18:59:00,48.2,21.8,29.74,SSW,193,0.0,0.0,35,0.00,,,0.00,0,HR-IXP-WINDi_r2_v1.2,2013-03-26 22:59:00,
2013-03-26 19:04:00,48.0,21.6,29.75,SSW,193,0.0,1.0,35,0.00,,,0.00,0,HR-IXP-WINDi_r2_v1.2,2013-03-26 23:04:00,
2013-03-26 19:09:00,47.7,22.0,29.75,SSW,193,0.0,1.0,36,0.00,,,0.00,0,HR-IXP-WINDi_r2_v1.2,2013-03-26 23:09:00,
2013-03-26 19:14:00,47.4,21.8,29.75,SSW,193,0.0,0.0,36,0.00,,,0.00,0,HR-IXP-WINDi_r2_v1.2,2013-03-26 23:14:00,
2013-03-26 19:20:00,47.1,22.2,29.75,SSW,193,0.0,1.0,37,0.00,,,0.00,0,HR-IXP-WINDi_r2_v1.2,2013-03-26 23:20:00,
2013-03-26 19:25:00,46.9,22.0,29.75,SSW,193,0.0,1.0,37,0.00,,,0.00,0,HR-IXP-WINDi_r2_v1.2,2013-03-26 23:25:00,
2013-03-26 19:30:00,46.6,22.3,29.75,SSW,193,0.0,0.0,38,0.00,,,0.00,0,HR-IXP-WINDi_r2_v1.2,2013-03-26 23:30:00,
2013-03-26 19:35:00,46.4,22.2,29.76,SSW,193,0.0,0.0,38,0.00,,,0.00,0,HR-IXP-WINDi_r2_v1.2,2013-03-26 23:35:00,
2013-03-26 19:40:00,46.2,22.0,29.76,SSW,193,0.0,0.0,38,0.00,,,0.00,0,HR-IXP-WINDi_r2_v1.2,2013-03-26 23:40:00,
2013-03-26 19:46:00,45.9,22.3,29.76,SSW,193,0.0,0.0,39,0.00,,,0.00,0,HR-IXP-WINDi_r2_v1.2,2013-03-26 23:46:00,
2013-03-26 19:51:00,45.8,22.2,29.76,SSW,193,0.0,0.0,39,0.00,,,0.00,0,HR-IXP-WINDi_r2_v1.2,2013-03-26 23:51:00,
2013-03-26 19:56:00,45.6,22.1,29.76,SSW,193,0.0,0.0,39,0.00,,,0.00,0,HR-IXP-WINDi_r2_v1.2,2013-03-26 23:56:00,
2013-03-26 20:01:00,45.3,22.4,29.77,SSW,193,0.0,0.0,40,0.00,,,0.00,0,HR-IXP-WINDi_r2_v1.2,2013-03-27 00:01:00,
2013-03-26 20:07:00,45.1,22.2,29.76,SSW,193,0.0,0.0,40,0.00,,,0.00,0,HR-IXP-WINDi_r2_v1.2,2013-03-27 00:07:00,
2013-03-26 20:12:00,44.9,22.0,29.77,SSW,193,0.0,0.0,40,0.00,,,0.00,0,HR-IXP-WINDi_r2_v1.2,2013-03-27 00:12:00,
2013-03-26 20:17:00,45.1,22.2,29.77,SSW,193,0.0,0.0,40,0.00,,,0.00,0,HR-IXP-WINDi_r2_v1.2,2013-03-27 00:17:00,
2013-03-26 20:22:00,45.2,22.3,29.77,SSW,193,0.0,0.0,40,0.00,,,0.00,0,HR-IXP-WINDi_r2_v1.2,2013-03-27 00:22:00,
2013-03-26 20:27:00,45.1,22.2,29.77,SSW,193,0.0,1.0,40,0.00,,,0.00,0,HR-IXP-WINDi_r2_v1.2,2013-03-27 00:27:00,
2013-03-26 20:33:00,44.9,22.0,29.77,SSW,193,0.0,1.0,40,0.00,,,0.00,0,HR-IXP-WINDi_r2_v1.2,2013-03-27 00:33:00,
2013-03-26 20:38:00,44.7,22.4,29.77,SSW,193,0.0,1.0,41,0.00,,,0.00,0,HR-IXP-WINDi_r2_v1.2,2013-03-27 00:38:00,
2013-03-26 20:43:00,44.5,22.3,29.78,SSW,193,0.0,1.0,41,0.00,,,0.00,0,HR-IXP-WINDi_r2_v1.2,2013-03-27 00:43:00,
2013-03-26 20:48:00,44.3,23.2,29.78,SSW,193,0.0,1.0,43,0.00,,,0.00,0,HR-IXP-WINDi_r2_v1.2,2013-03-27 00:48:00,
2013-03-26 20:53:00,44.2,23.1,29.78,SSW,193,0.0,1.0,43,0.00,,,0.00,0,HR-IXP-WINDi_r2_v1.2,2013-03-27 00:53:00,
2013-03-26 20:58:00,44.1,23.0,29.78,East,97,0.0,2.0,43,0.00,,,0.00,0,HR-IXP-WINDi_r2_v1.2,2013-03-27 00:58:00,
2013-03-26 21:04:00,44.0,23.5,29.78,East,97,0.0,2.0,44,0.00,,,0.00,0,HR-IXP-WINDi_r2_v1.2,2013-03-27 01:04:00,
2013-03-26 21:09:00,43.8,23.3,29.79,East,97,0.0,1.0,44,0.00,,,0.00,0,HR-IXP-WINDi_r2_v1.2,2013-03-27 01:09:00,
2013-03-26 21:14:00,43.6,23.7,29.79,East,97,0.0,1.0,45,0.00,,,0.00,0,HR-IXP-WINDi_r2_v1.2,2013-03-27 01:14:00,
2013-03-26 21:20:00,43.5,23.6,29.79,East,97,0.0,1.0,45,0.00,,,0.00,0,HR-IXP-WINDi_r2_v1.2,2013-03-27 01:20:00,
2013-03-26 21:25:00,43.3,23.4,29.79,East,97,0.0,1.0,45,0.00,,,0.00,0,HR-IXP-WINDi_r2_v1.2,2013-03-27 01:25:00,
2013-03-26 21:30:00,43.2,23.8,29.79,East,97,0.0,1.0,46,0.00,,,0.00,0,HR-IXP-WINDi_r2_v1.2,2013-03-27 01:30:00,
2013-03-26 21:36:00,43.1,23.7,29.79,ESE,111,0.0,1.0,46,0.00,,,0.00,0,HR-IXP-WINDi_r2_v1.2,2013-03-27 01:36:00,
2013-03-26 21:41:00,43.1,23.7,29.79,ESE,111,0.0,1.0,46,0.00,,,0.00,0,HR-IXP-WINDi_r2_v1.2,2013-03-27 01:41:00,
2013-03-26 21:46:00,42.9,24.0,29.80,ESE,111,0.0,1.0,47,0.00,,,0.00,0,HR-IXP-WINDi_r2_v1.2,2013-03-27 01:46:00,
2013-03-26 21:51:00,42.8,24.0,29.80,ESE,111,0.0,1.0,47,0.00,,,0.00,0,HR-IXP-WINDi_r2_v1.2,2013-03-27 01:51:00,
2013-03-26 21:56:00,42.7,23.9,29.80,ESE,111,0.0,1.0,47,0.00,,,0.00,0,HR-IXP-WINDi_r2_v1.2,2013-03-27 01:56:00,
2013-03-26 22:01:00,42.7,23.9,29.80,ESE,111,0.0,1.0,47,0.00,,,0.00,0,HR-IXP-WINDi_r2_v1.2,2013-03-27 02:01:00,
2013-03-26 22:06:00,42.6,23.8,29.80,ESE,111,0.0,1.0,47,0.00,,,0.00,0,HR-IXP-WINDi_r2_v1.2,2013-03-27 02:06:00,
2013-03-26 22:12:00,42.4,24.1,29.80,ESE,111,0.0,1.0,48,0.00,,,0.00,0,HR-IXP-WINDi_r2_v1.2,2013-03-27 02:12:00,
2013-03-26 22:17:00,42.2,23.9,29.80,SE,142,0.0,1.0,48,0.00,,,0.00,0,HR-IXP-WINDi_r2_v1.2,2013-03-27 02:17:00,
2013-03-26 22:22:00,42.1,23.8,29.80,SE,142,0.0,1.0,48,0.00,,,0.00,0,HR-IXP-WINDi_r2_v1.2,2013-03-27 02:22:00,
2013-03-26 22:27:00,42.0,23.7,29.80,SE,142,0.0,1.0,48,0.00,,,0.00,0,HR-IXP-WINDi_r2_v1.2,2013-03-27 02:27:00,
2013-03-26 22:32:00,41.8,24.0,29.80,SE,142,0.0,1.0,49,0.00,,,0.00,0,HR-IXP-WINDi_r2_v1.2,2013-03-27 02:32:00,
2013-03-26 22:37:00,41.6,23.8,29.80,SE,142,0.0,0.0,49,0.00,,,0.00,0,HR-IXP-WINDi_r2_v1.2,2013-03-27 02:37:00,
2013-03-26 22:43:00,41.5,23.8,29.80,SE,142,0.0,1.0,49,0.00,,,0.00,0,HR-IXP-WINDi_r2_v1.2,2013-03-27 02:43:00,
2013-03-26 22:48:00,41.4,23.7,29.80,SE,142,0.0,1.0,49,0.00,,,0.00,0,HR-IXP-WINDi_r2_v1.2,2013-03-27 02:48:00,
2013-03-26 22:53:00,41.2,23.5,29.80,SE,142,0.0,1.0,49,0.00,,,0.00,0,HR-IXP-WINDi_r2_v1.2,2013-03-27 02:53:00,
2013-03-26 22:58:00,41.1,23.4,29.80,SE,142,0.0,1.0,49,0.00,,,0.00,0,HR-IXP-WINDi_r2_v1.2,2013-03-27 02:58:00,
2013-03-26 23:03:00,41.0,24.7,29.80,SE,142,0.0,1.0,52,0.00,,,0.00,0,HR-IXP-WINDi_r2_v1.2,2013-03-27 03:03:00,
2013-03-26 23:09:00,40.8,23.6,29.80,SE,142,0.0,0.0,50,0.00,,,0.00,0,HR-IXP-WINDi_r2_v1.2,2013-03-27 03:09:00,
2013-03-26 23:14:00,40.7,23.5,29.80,SE,142,0.0,1.0,50,0.00,,,0.00,0,HR-IXP-WINDi_r2_v1.2,2013-03-27 03:14:00,
2013-03-26 23:19:00,40.6,23.4,29.80,SE,142,0.0,1.0,50,0.00,,,0.00,0,HR-IXP-WINDi_r2_v1.2,2013-03-27 03:19:00,
2013-03-26 23:24:00,40.5,23.3,29.80,SE,144,0.0,1.0,50,0.00,,,0.00,0,HR-IXP-WINDi_r2_v1.2,2013-03-27 03:24:00,
2013-03-26 23:30:00,40.3,23.1,29.80,SE,144,0.0,0.0,50,0.00,,,0.00,0,HR-IXP-WINDi_r2_v1.2,2013-03-27 03:30:00,
2013-03-26 23:35:00,40.2,23.5,29.81,SE,144,0.0,0.0,51,0.00,,,0.00,0,HR-IXP-WINDi_r2_v1.2,2013-03-27 03:35:00,
2013-03-26 23:40:00,40.1,23.4,29.81,SE,144,0.0,0.0,51,0.00,,,0.00,0,HR-IXP-WINDi_r2_v1.2,2013-03-27 03:40:00,
2013-03-26 23:45:00,40.0,23.3,29.80,SE,144,0.0,0.0,51,0.00,,,0.00,0,HR-IXP-WINDi_r2_v1.2,2013-03-27 03:45:00,
2013-03-26 23:51:00,39.9,23.2,29.81,SE,144,0.0,0.0,51,0.00,,,0.00,0,HR-IXP-WINDi_r2_v1.2,2013-03-27 03:51:00,
2013-03-26 23:56:00,39.9,22.8,29.80,SE,144,0.0,1.0,50,0.00,,,0.00,0,HR-IXP-WINDi_r2_v1.2,2013-03-27 03:56:00,